Location: Invercargill
(46.4000°S, 168.3500°E)
Time: 04:30:14
(UTC+13:00)

Cosmos 2322 - Pass Details

Date: 03 October 2021
Orbit: 840 x 855 km, 71.0° (Epoch: 24 October)

Event Time Altitude Azimuth Distance (km) Brightness Sun altitude
Rises 22:17:43 0° 204° (SSW) 3,436 7.8 -23.3°
Reaches altitude 10° 22:20:19 10° 197° (SSW) 2,497 6.8 -23.6°
Maximum altitude 22:25:47 44° 124° (SE) 1,168 4.2 -24.4°
Enters shadow 22:26:14 43° 111° (ESE) 1,181 4.2 -24.5°
